Location: Anjeux
(47.8815°N, 6.2076°E)
Time: 21:37:05
(UTC+00:00)

Cosmos 2184 Rocket - Pass Details

Date: 05 March 2021
Orbit: 960 x 1001 km, 82.9° (Epoch: 22 April)

Event Time Altitude Azimuth Distance (km) Brightness Sun altitude
Rises 05:13:48 0° 348° (NNW) 3,702 6.9 -9.9°
Reaches altitude 10° 05:16:20 10° 346° (NNW) 2,756 6.3 -9.5°
Maximum altitude 05:22:35 67° 266° (W) 1,075 4.0 -8.5°
Drops below altitude 10° 05:28:52 10° 185° (S) 2,760 6.3 -7.4°
Sets 05:31:24 0° 183° (S) 3,708 7.0 -7.0°
